Volver al catálogo

DELTA 1 DEB

ActivoLEO
NORAD 10706·DEBRIS·🇺🇸 United States

Lanzado Jul 29, 1976 desde Vandenberg Space Force Base

Loading…

Próximos Pases (próximas 24 horas)

TLE

ActualizadoSource: Space-Track

Época: Sep 14, 2026, 03:00 UTC

1 10706U 76077AB  26257.12510123  .00000296  00000-0  10384-2 0  9993
2 10706 101.5283 122.6837 0394233 319.2195 197.0536 12.83381578330888

Sigue DELTA 1 DEB en tiempo real con AllMySat

Download on the App Store